Regional Weather Roundup
Issued by NWS

Home | Current Version | Previous Version | Text Only | Print | Product List | Glossary On
Versions: 1 2 3 4 5 6 7 8 9 10 11 12 13 14 15 16 17 18 19 20 21 22 23 24 25 26 27 28 29 30 31 32 33 34 35 36 37 38 39 40 41 42 43 44 45 46 47 48 49 50
000
ASUS43 KMKX 202121
RWRWI

WISCONSIN REGIONAL WEATHER ROUNDUP
NATIONAL WEATHER SERVICE MILWAUKEE/SULLIVAN WI
300 PM CST SAT DEC 20 2014

NOTE: "FAIR" INDICATES FEW OR NO CLOUDS BELOW 12,000 FEET WITH NO
SIGNIFICANT WEATHER AND/OR OBSTRUCTIONS TO VISIBILITY.

WIZ001-002-006>008-014>016-023>028-202200-
NORTHWEST WISCONSIN

CITY           SKY/WX    TMP DP  RH WIND       PRES   REMARKS
SUPERIOR ARPT  CLOUDY    32  28  85 S6        30.11S WCI  26
ASHLAND        CLOUDY    32  26  78 S7        30.14S WCI  26
HAYWARD        CLOUDY    30  25  81 S7        30.12S HAZE    WCI  23
SIREN          CLOUDY    32  28  83 S7        30.12R WCI  26
CUMBERLAND     CLOUDY    30  27  86 S9        30.11S WCI  22
RICE LAKE      CLOUDY    32  27  81 SE8       30.14S WCI  25
CHETEK         CLOUDY    31  27  84 SE9       30.13F WCI  23
LADYSMITH      CLOUDY    31  27  85 S6        30.16S WCI  25
EAU CLAIRE     CLOUDY    32  25  75 S6        30.15S WCI  26
MENOMONIE      CLOUDY    32  28  83 SE7       30.14F HAZE    WCI  26
NEW RICHMOND   CLOUDY    31  30  95 S8        30.13R FOG     WCI  24
OSCEOLA        CLOUDY    32  29  90 SE8       30.15R FOG     WCI  25
$$

WIZ003>005-009-010-017-018-202200-
NORTH CENTRAL WISCONSIN

CITY           SKY/WX    TMP DP  RH WIND       PRES   REMARKS
MANITOWISH WTR CLOUDY    27  26  95 S7        30.13R WCI  19
ARBOR VITAE    CLOUDY    29  26  89 S5        30.13S FOG     WCI  24
WOODRUFF       CLOUDY    29  26  89 S5        30.13S FOG     WCI  24
RHINELANDER    CLOUDY    27  24  89 S6        30.14S WCI  20
EAGLE RIVER    LGT SNOW  28  27  98 S3        30.13S
LAND O LAKES   CLOUDY    27  26  95 S3        30.14R FOG
PHILLIPS       CLOUDY    28  25  87 S8        30.13S WCI  20
TOMAHAWK       CLOUDY    28  24  88 CALM      30.16S FOG
MEDFORD        CLOUDY    28  25  89 SE6       30.15R FOG     WCI  21
MERRILL        CLOUDY    28  26  91 CALM      30.17S FOG
$$

WIZ029-030-035-036-043>047-202200-
CENTRAL WISCONSIN

CITY           SKY/WX    TMP DP  RH WIND       PRES   REMARKS
WAUSAU         CLOUDY    30  24  78 S7        30.16S WCI  23
MOSINEE        CLOUDY    28  27  93 S6        30.18S WCI  22
MARSHFIELD     CLOUDY    30  25  81 SE8       30.16F HAZE    WCI  22
STEVENS POINT  CLOUDY    28  24  82 SE3       30.19S
WAUPACA        CLOUDY    32  26  77 SE3       30.22R HAZE
WAUTOMA        MIX PCPN  31  26  81 SE5       30.21S WCI  26
WISC RAPIDS    CLOUDY    31  24  75 SE6       30.20S WCI  25
CAMP DOUGLAS   FLURRIES  30  30 100 SE7       30.18F WCI  23
$$

WIZ011>013-019>022-031-037>040-048>050-202200-
NORTHEAST WISCONSIN

CITY           SKY/WX    TMP DP  RH WIND       PRES   REMARKS
ANTIGO         CLOUDY    26  24  93 S6        30.17R FOG     WCI  19
SHAWANO        CLOUDY    31  26  80 CALM      30.22S
OCONTO         CLOUDY    29  24  81 CALM      30.23S
STURGEON BAY   CLOUDY    30  21  69 CALM      30.25R
GREEN BAY      CLOUDY    30  24  78 CALM      30.23R
MANITOWOC      CLOUDY    33  25  72 CALM      30.23S
APPLETON       LGT SNOW  28  21  74 CALM      30.22S
CLINTONVILLE   CLOUDY    30  25  80 S3        30.21F
OSHKOSH        CLOUDY    29  24  82 CALM      30.23R HAZE
$$

WIZ032>034-041-042-053>061-202200-
SOUTHWEST WISCONSIN

CITY           SKY/WX    TMP DP  RH WIND       PRES   REMARKS
LA CROSSE      CLOUDY    33  27  78 S7        30.18R WCI  27
SPARTA         CLOUDY    31  26  82 SE5       30.19S WCI  26
VIROQUA        CLOUDY    30  30 100 SE8       30.16R WCI  22
BOSCOBEL       CLOUDY    33  25  72 CALM      30.20S
PRAIRIE DU CHI CLOUDY    32  27  83 E5        30.19R HAZE    WCI  27
PLATTEVILLE    CLOUDY    32  27  82 CALM      30.19S
$$

WIZ056-057-062-063-064-067-068-202200-
SOUTH CENTRAL WISCONSIN

CITY           SKY/WX    TMP DP  RH WIND       PRES   REMARKS
REEDSBURG      CLOUDY    29  26  89 SE5       30.19S FOG     WCI  24
BARABOO/DELLS  CLOUDY    29  26  86 S5        30.20S FOG     WCI  24
LONE ROCK      CLOUDY    34  26  72 SE6       30.20S WCI  29
MINERAL POINT  CLOUDY    32  28  86 SE8       30.17S FOG     WCI  25
MADISON        LGT SNOW  30  27  88 S7        30.21S FOG     WCI  23
MIDDLETON      CLOUDY    31  29  90 S5        30.21S WCI  27
WATERTOWN      MIX PCPN  29  27  90 S3        30.22S
MONROE         CLOUDY    30  28  93 SE7       30.19S WCI  23
JANESVILLE     DRIZZLE   32  27  80 S5        30.22S WCI  27
$$

WIZ051-052-058>065-066-070>072-202200-
SOUTHEAST WISCONSIN

CITY           SKY/WX    TMP DP  RH WIND       PRES   REMARKS
MILWAUKEE      FLURRIES  31  22  69 W5        30.23S WCI  26
WAUKESHA       CLOUDY    28  23  80 CALM      30.23S
MILWAUKEE/TIMM FLURRIES  30  21  69 CALM      30.24S
RACINE         CLOUDY    31  24  75 W5        30.25S WCI  26
BURLINGTON     CLOUDY    30  24  78 SW6       30.23R WCI  24
KENOSHA        CLOUDY    32  24  72 W3        30.23S
FOND DU LAC    LGT SNOW  30  24  78 S5        30.22S WCI  25
SHEBOYGAN      LGT SNOW  31  23  72 CALM      30.23R
WEST BEND      FLURRIES  30  23  74 S3        30.22R
JUNEAU         LGT SNOW  29  25  84 S5        30.23R WCI  24
$$

LSZ147-162-202200-
LAKE SUPERIOR

STATION/POSITION TIME  TEMP    WIND        PRES    WAVE
                       AIR SEA DIR/SP/G            HT/PER
                 (UTC) (F)     (DEG/KT/KT) (MB)    (FT/S)
DEVILS ISLAND    2100   32     200/  9/ 13 1021.2S
PORT WING        2000   33     160/  4/  7 1020.0F
SAXON HARBOR     2000   33     210/  5/ 11 1020.7S
$$

LMZ867-665-643>646-202200-
LAKE MICHIGAN

STATION/POSITION TIME  TEMP    WIND        PRES    WAVE
                       AIR SEA DIR/SP/G            HT/PER
                 (UTC) (F)     (DEG/KT/KT) (MB)    (FT/S)
CHAMBERS ISLAND  2000   28     220/  2/  3 1023.7F
NORTHPORT PIER   2000   31      CALM  /  3 1023.4F
SISTER BAY       1858             CALM       N/A
ALGOMA LAKESHORE 2014             CALM       N/A
KEWAUNEE LAKESHO 2100   32      CALM  /  1 1022.7R
SHEBOYGAN LAKESH 2100   32 34  360/  4/  5 1024.7R
PORT WASHINGTON  2040   32     200/  1/  4 1024.4S
MILWAUKEE LAKESH 2000   31     260/  3/  4   N/A
KENOSHA   LAKESH 2100   32      CALM  /  2 1024.0S
$$

TC  - TEMPERATURE IN CELSIUS
VSB - VISIBILITY IN STATUTE MILES
WCI - WIND CHILL INDEX
HX  - HEAT INDEX




USA.gov is the U.S. government's official web portal to all federal, state and local government web resources and services.